User: anonymous
Location: Albany
(35.0000°S, 118.0000°E)
Time: 22:00:36
(UTC-04:00)
Language:

Cosmos 1758 Rocket - Orbit

View from above orbital plane
View from above orbital plane
View from above satellite
View from above satellite

Ground track
Ground track

The orbit data is extracted from the following two-line orbital elements,

1 16792U 86046B   14257.09509912  .00000474  00000-0  55653-4 0  5633
2 16792 082.4810 069.7768 0024321 011.8825 126.9617 14.82616133525627
Epoch (UTC): 14 September 2014 02:16:56
Eccentricity: 0.0024321
inclination: 82.4810°
perigee height: 604 km
apogee height: 638 km
right ascension of ascending node: 69.7768°
argument of perigee: 11.8825°
revolutions per day: 14.82616133
mean anomaly at epoch: 126.9617°
orbit number at epoch: 52562

The dashed part of the orbit path shows where the satellite is in the earth's shadow,  

DLR